Simultaneous Nadir Overpasses (SNOs) Predictions

Prediction of SNOs between AQUA and METOP-B Satellite Orbit:

Table of predicted SNOs for the next 14.0 days since TLE Epoch: 1/23/2022
Index Date (AQUA) Time (AQUA) Lat,Lon (AQUA) SZA (AQUA ) Date (METOP-B) Time (METOP-B) Lat,Lon (METOP-B) SZA (METOP-B ) Distance(km) Time Diff (sec)
1 01/25/2022 12:01:24 -73.79, 174.09 87.24 01/25/2022 12:00:35 -73.80, 174.04 87.22 2.16 49
2 01/25/2022 12:50:53 73.88, -18.47 92.85 01/25/2022 12:51:13 73.88, -18.43 92.85 1.44 20
3 01/28/2022 07:35:38 -73.81,-119.51 87.93 01/28/2022 07:34:55 -73.82,-119.50 87.91 1.10 43
4 01/28/2022 08:25:07 73.91, 47.91 92.17 01/28/2022 08:25:33 73.90, 48.02 92.15 3.52 26
5 01/31/2022 03:09:51 -73.85, -53.15 88.64 01/31/2022 03:09:14 -73.84, -53.04 88.65 3.83 37
6 01/31/2022 03:59:19 73.90, 114.38 91.40 01/31/2022 03:59:52 73.91, 114.47 91.40 2.80 33
7 02/02/2022 22:44:04 -73.86, 13.29 89.44 02/02/2022 22:43:34 -73.85, 13.41 89.44 3.61 30
8 02/02/2022 23:33:32 73.91,-179.18 90.61 02/02/2022 23:34:12 73.92,-179.10 90.61 2.84 40
9 02/05/2022 18:18:16 -73.83, 79.82 90.31 02/05/2022 18:17:55 -73.82, 79.73 90.32 3.11 21
10 02/05/2022 19:07:45 73.93,-112.77 89.79 02/05/2022 19:08:32 73.93,-112.67 89.78 3.09 47



Historial Predications of SNOs between AQUA and METOP-B
